Location: ??????
(41.3747°N, 22.5491°E)
Time: 06:16:18
(UTC+00:00)

USA 281 - Pass Details

Date: 01 December 2020
Orbit: 1074 x 1084 km, 106.0° (Epoch: 08 January)

Event Time Altitude Azimuth Distance (km) Brightness Sun altitude
Rises 15:34:04 0° 104° (ESE) 3,876 5.7 -6.4°
Reaches altitude 10° 15:37:23 10° 88° (E) 2,922 4.9 -6.9°
Maximum altitude 15:41:39 19° 46° (NE) 2,338 4.4 -7.7°
Drops below altitude 10° 15:45:55 10° 5° (N) 2,925 5.2 -8.4°
Sets 15:49:14 0° 349° (N) 3,883 6.0 -9.0°
